Regional Weather Roundup
Issued by NWS Raleigh/Durham, NC

Home | Current Version | Previous Version | Text Only | Print | Product List | Glossary On
Versions: 1 2 3 4 5 6 7 8 9 10 11 12 13 14 15 16 17 18 19 20 21 22 23 24 25 26 27
000
ASUS42 KRAH 242210
RWRRAH
NORTH CAROLINA WEATHER ROUNDUP
NATIONAL WEATHER SERVICE RALEIGH NC
600 PM EDT THU APR 24 2014

NOTE: "FAIR" INDICATES FEW OR NO CLOUDS BELOW 12,000 FEET WITH NO
SIGNIFICANT WEATHER AND/OR OBSTRUCTIONS TO VISIBILITY.

NCZ001-053-055-056-065-067-242300-
WESTERN NORTH CAROLINA

CITY           SKY/WX    TMP DP  RH WIND       PRES   REMARKS
ASHEVILLE      MOSUNNY   70  36  28 SE9       29.99S
JEFFERSON      PTSUNNY   63  31  29 S9        30.01S
MORGANTON      SUNNY     73  33  22 S7        30.02S
HICKORY        SUNNY     71  37  28 SW12G17   29.98S
RUTHERFORDTON  MOSUNNY   71  38  29 S8        29.99S
MOUNT AIRY     SUNNY     69  35  28 SW6       29.99S
BOONE          MOSUNNY   65  29  25 S10G17    30.03R
$$

NCZ021-022-025-041-071-084-088-242300-
CENTRAL NORTH CAROLINA

CITY           SKY/WX    TMP DP  RH WIND       PRES   REMARKS
CHARLOTTE      MOSUNNY   73  40  30 S10       29.99F
GREENSBORO     PTSUNNY   71  35  26 SW10G16   29.99R
WINSTON-SALEM  SUNNY     70  34  26 VRB7      30.00S
RALEIGH-DURHAM PTSUNNY   69  37  30 VRB7      30.01S
FORT BRAGG     SUNNY     72  37  28 SW6       30.00S
FAYETTEVILLE   SUNNY     74  36  25 SW8       30.00S
CHAPEL HILL    SUNNY     70  34  26 VRB6      30.01R
BURLINGTON     SUNNY     71  33  24 VRB6      29.99S
LAURINBURG     SUNNY     71  41  33 S5        30.01S
$$

NCZ011-015-027-028-043-044-047-080-103-242300-
NORTHEASTERN NORTH CAROLINA

CITY           SKY/WX    TMP DP  RH WIND       PRES   REMARKS
ROCKY MT-WILSO SUNNY     69  33  26 S5        30.01S
GREENVILLE     SUNNY     66  34  30 SW3       30.03S
WASHINGTON     SUNNY     68  12  11 CALM      30.02S
ELIZABETH CITY MOSUNNY   68  26  20 N5        30.01S
MANTEO         SUNNY     56  42  57 S10       30.03F
CAPE HATTERAS  SUNNY     59  42  53 SE8       30.05R
$$

NCZ078-087-090-091-093-098-101-242300-
SOUTHEASTERN NORTH CAROLINA

CITY           SKY/WX    TMP DP  RH WIND       PRES   REMARKS
LUMBERTON      SUNNY     73  42  32 S6        30.00S
GOLDSBORO      SUNNY     70  31  23 SW5       30.00S
KINSTON        SUNNY     70  30  23 CALM      30.02S
KENANSVILLE    SUNNY     71  31  23 CALM      30.02S
NEW BERN       SUNNY     71  34  25 SE7       30.02S
CHERRY POINT   MOSUNNY   65  42  43 S9        30.04R
BEAUFORT       SUNNY     62  41  46 SE9       30.04R
JACKSONVILLE   SUNNY     65  43  44 SE10      30.03R
WILMINGTON     SUNNY     67  43  41 SE8       30.03R
$$




USA.gov is the U.S. government's official web portal to all federal, state and local government web resources and services.